Time,TemperatureF,DewpointF,PressureIn,WindDirection,WindDirectionDegrees,WindSpeedMPH,WindSpeedGustMPH,Humidity,HourlyPrecipIn,Conditions,Clouds,dailyrainin,SoftwareType,DateUTC
2013-05-28 00:03:00,63.0,54.0,30.21,South,174,0.0,1.0,73,0.00,,,0.00,,2013-05-28 04:03:00,
2013-05-28 00:13:00,63.0,54.0,30.21,South,174,0.0,1.0,73,0.00,,,0.00,,2013-05-28 04:13:00,
2013-05-28 00:22:00,63.0,55.0,30.21,South,174,0.0,0.0,74,0.00,,,0.00,,2013-05-28 04:22:00,
2013-05-28 00:33:00,62.0,54.0,30.21,South,174,0.0,0.0,74,0.00,,,0.00,,2013-05-28 04:33:00,
2013-05-28 00:43:00,62.0,54.0,30.21,South,174,0.0,0.0,74,0.00,,,0.00,,2013-05-28 04:43:00,
2013-05-28 00:53:00,62.0,54.0,30.21,South,175,0.0,0.0,75,0.00,,,0.00,,2013-05-28 04:53:00,
2013-05-28 01:02:00,62.0,54.0,30.21,South,175,0.0,2.0,75,0.00,,,0.00,,2013-05-28 05:02:00,
2013-05-28 01:12:00,62.0,54.0,30.21,South,175,0.0,2.0,75,0.00,,,0.00,,2013-05-28 05:12:00,
2013-05-28 01:22:00,62.0,54.0,30.21,South,174,0.0,2.0,75,0.00,,,0.00,,2013-05-28 05:22:00,
2013-05-28 01:33:00,62.0,54.0,30.20,South,174,0.0,1.0,76,0.00,,,0.00,,2013-05-28 05:33:00,
2013-05-28 01:42:00,62.0,54.0,30.20,South,174,0.0,1.0,76,0.00,,,0.00,,2013-05-28 05:42:00,
2013-05-28 01:52:00,62.0,54.0,30.20,South,174,0.0,2.0,76,0.00,,,0.00,,2013-05-28 05:52:00,
2013-05-28 02:02:00,62.0,55.0,30.20,South,174,0.0,2.0,77,0.00,,,0.00,,2013-05-28 06:02:00,
2013-05-28 02:12:00,62.0,55.0,30.20,South,174,0.0,2.0,77,0.00,,,0.00,,2013-05-28 06:12:00,
2013-05-28 02:22:00,61.0,54.0,30.19,South,174,0.0,0.0,78,0.00,,,0.00,,2013-05-28 06:22:00,
2013-05-28 02:32:00,61.0,54.0,30.19,South,174,0.0,0.0,78,0.00,,,0.00,,2013-05-28 06:32:00,
2013-05-28 02:42:00,61.0,54.0,30.19,South,174,0.0,0.0,78,0.00,,,0.00,,2013-05-28 06:42:00,
2013-05-28 02:52:00,61.0,54.0,30.19,South,175,0.0,0.0,78,0.00,,,0.00,,2013-05-28 06:52:00,
2013-05-28 03:02:00,61.0,54.0,30.18,South,174,0.0,2.0,79,0.00,,,0.00,,2013-05-28 07:02:00,
2013-05-28 03:11:00,61.0,54.0,30.18,South,174,0.0,2.0,79,0.00,,,0.00,,2013-05-28 07:11:00,
2013-05-28 03:21:00,61.0,54.0,30.17,South,175,0.0,2.0,79,0.00,,,0.00,,2013-05-28 07:21:00,
2013-05-28 03:32:00,61.0,54.0,30.17,South,174,0.0,2.0,79,0.00,,,0.00,,2013-05-28 07:32:00,
2013-05-28 03:42:00,61.0,54.0,30.17,South,174,0.0,2.0,79,0.00,,,0.00,,2013-05-28 07:42:00,
2013-05-28 03:52:00,61.0,54.0,30.17,South,174,0.0,4.0,78,0.00,,,0.00,,2013-05-28 07:52:00,
2013-05-28 04:02:00,62.0,55.0,30.17,South,174,0.0,4.0,78,0.00,,,0.00,,2013-05-28 08:02:00,
2013-05-28 04:12:00,62.0,55.0,30.17,South,174,0.0,4.0,78,0.00,,,0.00,,2013-05-28 08:12:00,
2013-05-28 04:22:00,61.0,55.0,30.17,South,175,0.0,1.0,80,0.00,,,0.00,,2013-05-28 08:22:00,
2013-05-28 04:32:00,60.0,54.0,30.17,South,174,0.0,3.0,82,0.00,,,0.00,,2013-05-28 08:32:00,
2013-05-28 04:42:00,60.0,54.0,30.17,South,174,0.0,3.0,82,0.00,,,0.00,,2013-05-28 08:42:00,
2013-05-28 04:52:00,60.0,54.0,30.17,South,174,0.0,3.0,82,0.00,,,0.00,,2013-05-28 08:52:00,
2013-05-28 05:01:00,60.0,55.0,30.17,South,174,0.0,2.0,83,0.00,,,0.00,,2013-05-28 09:01:00,
2013-05-28 05:11:00,60.0,55.0,30.17,South,174,0.0,2.0,83,0.00,,,0.00,,2013-05-28 09:11:00,
2013-05-28 05:21:00,60.0,55.0,30.16,South,174,0.0,3.0,83,0.00,,,0.00,,2013-05-28 09:21:00,
2013-05-28 05:33:00,60.0,54.0,30.16,South,172,2.0,7.0,82,0.00,,,0.00,,2013-05-28 09:33:00,
2013-05-28 05:43:00,60.0,54.0,30.16,South,172,2.0,7.0,82,0.00,,,0.00,,2013-05-28 09:43:00,
2013-05-28 05:54:00,61.0,55.0,30.17,South,172,2.0,6.0,81,0.00,,,0.00,,2013-05-28 09:54:00,
2013-05-28 06:03:00,61.0,55.0,30.17,South,173,2.0,7.0,82,0.00,,,0.00,,2013-05-28 10:03:00,
2013-05-28 06:12:00,61.0,55.0,30.17,South,173,2.0,7.0,82,0.00,,,0.00,,2013-05-28 10:12:00,
2013-05-28 06:23:00,61.0,55.0,30.18,South,176,2.0,8.0,82,0.00,,,0.00,,2013-05-28 10:23:00,
2013-05-28 06:32:00,60.0,55.0,30.19,South,173,2.0,11.0,84,0.00,,,0.00,,2013-05-28 10:32:00,
2013-05-28 06:43:00,60.0,55.0,30.19,South,173,2.0,11.0,84,0.00,,,0.00,,2013-05-28 10:43:00,
2013-05-28 06:53:00,60.0,55.0,30.19,South,169,2.0,11.0,84,0.00,,,0.00,,2013-05-28 10:53:00,
2013-05-28 07:02:00,60.0,55.0,30.19,South,176,2.0,10.0,83,0.00,,,0.00,,2013-05-28 11:02:00,
2013-05-28 07:11:00,60.0,55.0,30.19,South,176,2.0,10.0,83,0.00,,,0.00,,2013-05-28 11:11:00,
2013-05-28 07:22:00,60.0,55.0,30.19,South,169,4.0,11.0,83,0.00,,,0.00,,2013-05-28 11:22:00,
2013-05-28 07:32:00,61.0,56.0,30.19,South,170,4.0,14.0,83,0.00,,,0.00,,2013-05-28 11:32:00,
2013-05-28 07:42:00,61.0,56.0,30.19,South,170,4.0,14.0,83,0.00,,,0.00,,2013-05-28 11:42:00,
2013-05-28 07:52:00,60.0,55.0,30.20,South,172,2.0,11.0,83,0.00,,,0.00,,2013-05-28 11:52:00,
2013-05-28 08:02:00,61.0,56.0,30.20,South,172,3.0,11.0,83,0.00,,,0.00,,2013-05-28 12:02:00,
2013-05-28 08:11:00,61.0,56.0,30.20,South,172,3.0,11.0,83,0.00,,,0.00,,2013-05-28 12:11:00,
2013-05-28 08:22:00,61.0,56.0,30.21,South,172,1.0,7.0,83,0.00,,,0.00,,2013-05-28 12:22:00,
2013-05-28 08:32:00,63.0,57.0,30.21,South,170,1.0,8.0,80,0.00,,,0.00,,2013-05-28 12:32:00,
2013-05-28 08:42:00,63.0,57.0,30.21,South,170,1.0,8.0,80,0.00,,,0.00,,2013-05-28 12:42:00,
2013-05-28 08:52:00,64.0,57.0,30.21,South,173,1.0,10.0,77,0.00,,,0.00,,2013-05-28 12:52:00,
2013-05-28 09:01:00,66.0,57.0,30.21,South,172,2.0,6.0,74,0.00,,,0.00,,2013-05-28 13:01:00,
2013-05-28 09:11:00,66.0,57.0,30.21,South,172,2.0,6.0,74,0.00,,,0.00,,2013-05-28 13:11:00,
2013-05-28 09:22:00,68.0,58.0,30.22,South,173,1.0,5.0,70,0.00,,,0.00,,2013-05-28 13:22:00,
2013-05-28 09:32:00,68.0,57.0,30.22,South,173,2.0,5.0,69,0.00,,,0.00,,2013-05-28 13:32:00,
2013-05-28 09:42:00,68.0,57.0,30.22,South,173,2.0,5.0,69,0.00,,,0.00,,2013-05-28 13:42:00,
2013-05-28 09:52:00,69.0,58.0,30.22,South,174,1.0,4.0,68,0.00,,,0.00,,2013-05-28 13:52:00,
2013-05-28 10:02:00,70.0,59.0,30.22,South,174,1.0,4.0,67,0.00,,,0.00,,2013-05-28 14:02:00,
2013-05-28 10:12:00,70.0,59.0,30.22,South,174,1.0,4.0,67,0.00,,,0.00,,2013-05-28 14:12:00,
2013-05-28 10:21:00,71.0,59.0,30.23,South,173,1.0,5.0,66,0.00,,,0.00,,2013-05-28 14:21:00,
2013-05-28 10:32:00,71.0,59.0,30.23,South,173,2.0,6.0,65,0.00,,,0.00,,2013-05-28 14:32:00,
2013-05-28 10:42:00,71.0,59.0,30.23,South,173,2.0,6.0,65,0.00,,,0.00,,2013-05-28 14:42:00,
2013-05-28 10:52:00,70.0,58.0,30.23,South,176,1.0,5.0,66,0.00,,,0.00,,2013-05-28 14:52:00,
2013-05-28 11:01:00,70.0,58.0,30.23,South,176,1.0,5.0,66,0.00,,,0.00,,2013-05-28 15:01:00,
2013-05-28 11:11:00,70.0,58.0,30.23,South,176,1.0,5.0,66,0.00,,,0.00,,2013-05-28 15:11:00,
2013-05-28 11:21:00,71.0,59.0,30.23,South,173,1.0,6.0,66,0.00,,,0.00,,2013-05-28 15:21:00,
2013-05-28 11:33:00,73.0,59.0,30.23,South,175,1.0,6.0,62,0.00,,,0.00,,2013-05-28 15:33:00,
2013-05-28 11:43:00,73.0,59.0,30.23,South,175,1.0,6.0,62,0.00,,,0.00,,2013-05-28 15:43:00,
2013-05-28 11:52:00,73.0,59.0,30.23,South,175,1.0,6.0,62,0.00,,,0.00,,2013-05-28 15:52:00,
2013-05-28 12:03:00,73.0,60.0,30.23,South,174,1.0,4.0,63,0.00,,,0.00,,2013-05-28 16:03:00,
2013-05-28 12:13:00,73.0,60.0,30.23,South,174,1.0,4.0,63,0.00,,,0.00,,2013-05-28 16:13:00,
2013-05-28 12:22:00,74.0,61.0,30.23,South,174,0.0,5.0,63,0.00,,,0.00,,2013-05-28 16:22:00,
2013-05-28 12:33:00,75.0,58.0,30.23,South,173,2.0,6.0,55,0.00,,,0.00,,2013-05-28 16:33:00,
2013-05-28 12:42:00,75.0,58.0,30.23,South,173,2.0,6.0,55,0.00,,,0.00,,2013-05-28 16:42:00,
2013-05-28 12:52:00,75.0,63.0,30.23,South,173,0.0,2.0,66,0.00,,,0.00,,2013-05-28 16:52:00,
2013-05-28 13:02:00,77.0,64.0,30.23,South,173,0.0,4.0,65,0.00,,,0.00,,2013-05-28 17:02:00,
2013-05-28 13:12:00,77.0,64.0,30.23,South,173,0.0,4.0,65,0.00,,,0.00,,2013-05-28 17:12:00,
2013-05-28 13:22:00,77.0,64.0,30.23,South,173,0.0,4.0,65,0.00,,,0.00,,2013-05-28 17:22:00,
2013-05-28 13:32:00,79.0,65.0,30.22,South,173,0.0,4.0,62,0.00,,,0.00,,2013-05-28 17:32:00,
2013-05-28 13:42:00,79.0,64.0,30.22,South,173,1.0,5.0,60,0.00,,,0.00,,2013-05-28 17:42:00,
2013-05-28 13:52:00,79.0,64.0,30.22,South,173,1.0,5.0,60,0.00,,,0.00,,2013-05-28 17:52:00,
2013-05-28 14:01:00,79.0,64.0,30.22,South,173,1.0,5.0,60,0.00,,,0.00,,2013-05-28 18:01:00,
2013-05-28 14:11:00,79.0,64.0,30.22,South,173,1.0,5.0,60,0.00,,,0.00,,2013-05-28 18:11:00,
2013-05-28 14:22:00,77.0,63.0,30.21,South,173,1.0,4.0,63,0.00,,,0.00,,2013-05-28 18:22:00,
2013-05-28 14:32:00,78.0,64.0,30.21,South,173,1.0,5.0,63,0.00,,,0.00,,2013-05-28 18:32:00,
2013-05-28 14:42:00,78.0,63.0,30.21,South,173,0.0,3.0,61,0.00,,,0.00,,2013-05-28 18:42:00,
2013-05-28 14:52:00,78.0,63.0,30.21,South,173,0.0,3.0,61,0.00,,,0.00,,2013-05-28 18:52:00,
2013-05-28 15:01:00,77.0,64.0,30.21,South,173,0.0,5.0,65,0.00,,,0.00,,2013-05-28 19:01:00,
2013-05-28 15:11:00,77.0,64.0,30.21,South,173,0.0,5.0,65,0.00,,,0.00,,2013-05-28 19:11:00,
2013-05-28 15:21:00,77.0,63.0,30.20,South,173,1.0,4.0,63,0.00,,,0.00,,2013-05-28 19:21:00,
2013-05-28 15:32:00,77.0,63.0,30.20,South,172,1.0,6.0,63,0.00,,,0.00,,2013-05-28 19:32:00,
2013-05-28 15:42:00,77.0,63.0,30.20,South,172,1.0,6.0,63,0.00,,,0.00,,2013-05-28 19:42:00,
2013-05-28 15:52:00,76.0,61.0,30.19,South,173,0.0,5.0,59,0.00,,,0.00,,2013-05-28 19:52:00,
2013-05-28 16:02:00,77.0,63.0,30.19,South,173,0.0,3.0,61,0.00,,,0.00,,2013-05-28 20:02:00,
2013-05-28 16:11:00,77.0,63.0,30.19,South,173,0.0,3.0,61,0.00,,,0.00,,2013-05-28 20:11:00,
2013-05-28 16:22:00,77.0,63.0,30.18,South,173,0.0,3.0,63,0.00,,,0.00,,2013-05-28 20:22:00,
2013-05-28 16:32:00,79.0,64.0,30.19,South,173,1.0,3.0,60,0.00,,,0.00,,2013-05-28 20:32:00,
2013-05-28 16:42:00,79.0,64.0,30.19,South,173,1.0,3.0,60,0.00,,,0.00,,2013-05-28 20:42:00,
2013-05-28 16:52:00,78.0,63.0,30.19,South,173,1.0,5.0,61,0.00,,,0.00,,2013-05-28 20:52:00,
2013-05-28 17:02:00,75.0,59.0,30.19,South,173,2.0,5.0,57,0.00,,,0.00,,2013-05-28 21:02:00,
2013-05-28 17:11:00,75.0,59.0,30.19,South,173,2.0,5.0,57,0.00,,,0.00,,2013-05-28 21:11:00,
2013-05-28 17:21:00,76.0,60.0,30.19,South,172,2.0,5.0,57,0.00,,,0.00,,2013-05-28 21:21:00,
2013-05-28 17:33:00,76.0,62.0,30.19,South,176,1.0,8.0,61,0.00,,,0.00,,2013-05-28 21:33:00,
2013-05-28 17:43:00,76.0,62.0,30.19,South,176,1.0,8.0,61,0.00,,,0.00,,2013-05-28 21:43:00,
2013-05-28 17:53:00,74.0,59.0,30.19,South,176,2.0,6.0,59,0.00,,,0.00,,2013-05-28 21:53:00,
2013-05-28 18:02:00,73.0,59.0,30.19,South,173,2.0,5.0,62,0.00,,,0.00,,2013-05-28 22:02:00,
2013-05-28 18:13:00,71.0,59.0,30.18,South,172,1.0,7.0,66,0.00,,,0.00,,2013-05-28 22:13:00,
2013-05-28 18:22:00,71.0,59.0,30.18,South,172,1.0,7.0,66,0.00,,,0.00,,2013-05-28 22:22:00,
2013-05-28 18:33:00,70.0,58.0,30.18,South,174,1.0,7.0,66,0.00,,,0.00,,2013-05-28 22:33:00,
2013-05-28 18:42:00,70.0,58.0,30.18,South,174,1.0,5.0,65,0.00,,,0.00,,2013-05-28 22:42:00,
2013-05-28 18:52:00,70.0,58.0,30.18,South,174,1.0,5.0,65,0.00,,,0.00,,2013-05-28 22:52:00,
2013-05-28 19:02:00,70.0,59.0,30.18,South,174,0.0,5.0,67,0.00,,,0.00,,2013-05-28 23:02:00,
2013-05-28 19:11:00,70.0,59.0,30.18,South,174,0.0,5.0,67,0.00,,,0.00,,2013-05-28 23:11:00,
2013-05-28 19:22:00,69.0,58.0,30.18,South,175,0.0,4.0,68,0.00,,,0.00,,2013-05-28 23:22:00,
2013-05-28 19:32:00,70.0,59.0,30.18,South,173,0.0,8.0,67,0.00,,,0.00,,2013-05-28 23:32:00,
2013-05-28 19:42:00,70.0,59.0,30.18,South,173,0.0,8.0,67,0.00,,,0.00,,2013-05-28 23:42:00,
2013-05-28 19:52:00,70.0,58.0,30.18,South,173,0.0,4.0,66,0.00,,,0.00,,2013-05-28 23:52:00,
2013-05-28 20:02:00,69.0,57.0,30.18,South,173,0.0,3.0,66,0.00,,,0.00,,2013-05-29 00:02:00,
2013-05-28 20:11:00,69.0,57.0,30.18,South,173,0.0,3.0,66,0.00,,,0.00,,2013-05-29 00:11:00,
2013-05-28 20:22:00,68.0,57.0,30.18,South,173,0.0,2.0,69,0.00,,,0.00,,2013-05-29 00:22:00,
2013-05-28 20:32:00,67.0,58.0,30.19,South,173,0.0,2.0,72,0.00,,,0.00,,2013-05-29 00:32:00,
2013-05-28 20:42:00,67.0,58.0,30.19,South,173,0.0,2.0,72,0.00,,,0.00,,2013-05-29 00:42:00,
2013-05-28 20:52:00,66.0,57.0,30.19,South,173,0.0,2.0,73,0.00,,,0.00,,2013-05-29 00:52:00,
2013-05-28 21:01:00,66.0,57.0,30.19,South,173,0.0,3.0,74,0.00,,,0.00,,2013-05-29 01:01:00,
2013-05-28 21:11:00,66.0,57.0,30.19,South,173,0.0,3.0,74,0.00,,,0.00,,2013-05-29 01:11:00,
2013-05-28 21:22:00,65.0,57.0,30.19,South,173,0.0,2.0,75,0.00,,,0.00,,2013-05-29 01:22:00,
2013-05-28 21:32:00,64.0,57.0,30.19,South,173,0.0,2.0,77,0.00,,,0.00,,2013-05-29 01:32:00,
2013-05-28 21:42:00,64.0,57.0,30.19,South,173,0.0,2.0,77,0.00,,,0.00,,2013-05-29 01:42:00,
2013-05-28 21:52:00,64.0,57.0,30.19,South,173,0.0,3.0,77,0.00,,,0.00,,2013-05-29 01:52:00,
2013-05-28 22:02:00,64.0,57.0,30.19,South,173,0.0,2.0,77,0.00,,,0.00,,2013-05-29 02:02:00,
2013-05-28 22:12:00,64.0,57.0,30.19,South,173,0.0,2.0,77,0.00,,,0.00,,2013-05-29 02:12:00,
2013-05-28 22:21:00,64.0,57.0,30.19,South,173,1.0,3.0,78,0.00,,,0.00,,2013-05-29 02:21:00,
2013-05-28 22:32:00,64.0,57.0,30.19,South,173,1.0,3.0,79,0.00,,,0.00,,2013-05-29 02:32:00,
2013-05-28 22:42:00,64.0,57.0,30.20,South,173,0.0,3.0,79,0.00,,,0.00,,2013-05-29 02:42:00,
2013-05-28 22:51:00,64.0,57.0,30.20,South,173,0.0,3.0,79,0.00,,,0.00,,2013-05-29 02:51:00,
2013-05-28 23:02:00,64.0,58.0,30.20,South,173,1.0,4.0,80,0.00,,,0.00,,2013-05-29 03:02:00,
2013-05-28 23:12:00,64.0,58.0,30.20,South,173,1.0,4.0,80,0.00,,,0.00,,2013-05-29 03:12:00,
2013-05-28 23:22:00,64.0,58.0,30.20,South,173,1.0,3.0,80,0.00,,,0.00,,2013-05-29 03:22:00,
2013-05-28 23:33:00,64.0,58.0,30.21,South,170,1.0,3.0,81,0.00,,,0.00,,2013-05-29 03:33:00,
2013-05-28 23:43:00,64.0,58.0,30.21,South,170,1.0,3.0,81,0.00,,,0.00,,2013-05-29 03:43:00,
2013-05-28 23:53:00,64.0,58.0,30.21,South,170,0.0,6.0,81,0.00,,,0.00,,2013-05-29 03:53:00,